TimeAKDT,TemperatureF,Dew PointF,Humidity,Sea Level PressureIn,VisibilityMPH,Wind Direction,Wind SpeedMPH,Gust SpeedMPH,PrecipitationIn,Events,Conditions,WindDirDegrees,DateUTC
12:58 AM,48.9,36.0,61,30.04,10.0,North,6.9,-,N/A,,Clear,10,2014-06-06 08:58:00
1:58 AM,46.0,35.1,66,30.04,10.0,North,6.9,-,N/A,,Scattered Clouds,360,2014-06-06 09:58:00
2:58 AM,44.1,35.1,71,30.03,10.0,NNW,6.9,-,N/A,,Clear,340,2014-06-06 10:58:00
3:58 AM,43.0,35.1,74,30.03,10.0,North,4.6,-,N/A,,Clear,350,2014-06-06 11:58:00
4:58 AM,41.0,35.1,79,30.02,10.0,NNW,12.7,-,N/A,,Scattered Clouds,340,2014-06-06 12:58:00
5:58 AM,39.9,35.1,83,30.01,10.0,North,8.1,-,N/A,,Overcast,350,2014-06-06 13:58:00
6:58 AM,39.9,35.1,83,30.01,10.0,NNW,12.7,-,N/A,,Mostly Cloudy,340,2014-06-06 14:58:00
7:58 AM,39.9,33.1,77,30.00,10.0,NNW,15.0,-,N/A,,Mostly Cloudy,330,2014-06-06 15:58:00
8:58 AM,42.1,34.0,73,30.00,10.0,NNW,13.8,-,N/A,,Clear,340,2014-06-06 16:58:00
9:58 AM,44.1,35.1,71,30.00,9.0,NNW,11.5,-,N/A,,Clear,340,2014-06-06 17:58:00
10:58 AM,45.0,35.1,68,29.99,10.0,NNW,11.5,-,N/A,,Mostly Cloudy,330,2014-06-06 18:58:00
11:58 AM,46.9,35.1,63,29.98,9.0,NW,11.5,17.3,N/A,,Scattered Clouds,320,2014-06-06 19:58:00
12:58 PM,48.9,35.1,59,29.97,9.0,NNW,12.7,-,N/A,,Mostly Cloudy,340,2014-06-06 20:58:00
1:58 PM,48.9,34.0,56,29.97,10.0,Variable,6.9,-,N/A,,Overcast,0,2014-06-06 21:58:00
2:58 PM,50.0,33.1,52,29.96,10.0,NW,4.6,17.3,N/A,,Overcast,320,2014-06-06 22:58:00
3:58 PM,51.1,33.1,50,29.95,10.0,North,8.1,-,N/A,,Overcast,360,2014-06-06 23:58:00
4:58 PM,48.9,33.1,54,29.94,9.0,Variable,3.5,-,N/A,,Overcast,0,2014-06-07 00:58:00
5:58 PM,48.9,33.1,54,29.93,10.0,North,11.5,-,N/A,,Overcast,350,2014-06-07 01:58:00
6:58 PM,48.0,33.1,56,29.92,10.0,North,10.4,-,N/A,,Overcast,360,2014-06-07 02:58:00
7:58 PM,48.9,33.1,54,29.90,10.0,NNW,11.5,-,N/A,,Overcast,340,2014-06-07 03:58:00
8:58 PM,46.9,32.0,56,29.90,10.0,North,10.4,-,N/A,,Mostly Cloudy,360,2014-06-07 04:58:00
9:58 PM,44.1,33.1,65,29.89,10.0,NW,17.3,-,N/A,,Overcast,320,2014-06-07 05:58:00
10:58 PM,43.0,33.1,68,29.89,10.0,NNW,12.7,-,N/A,,Overcast,330,2014-06-07 06:58:00
11:58 PM,41.0,32.0,70,29.88,10.0,NNW,17.3,21.9,N/A,,Overcast,330,2014-06-07 07:58:00